Regional Weather Roundup
Issued by NWS

Home | Current Version | Previous Version | Text Only | Print | Product List | Glossary Off
Versions: 1 2 3 4 5 6 7 8 9 10 11 12 13 14 15 16 17 18 19 20 21 22 23 24 25 26 27 28 29 30 31 32 33 34 35 36 37 38 39 40 41 42 43 44 45 46 47 48 49 50

000
ASUS44 KMEG 251210
RWRTN
TENNESSEE HOURLY STATE WEATHER ROUNDUP
NATIONAL WEATHER SERVICE MEMPHIS TN
700 AM CDT SAT OCT 25 2014

TNZ002-004-019-021-049-052-054-088>092-251300-
WEST TENNESSEE

CITY           SKY/WX    TMP DP  RH WIND       PRES   REMARKS
MEMPHIS INTL   PTCLDY    56  53  90 CALM      30.09S
NWS MEMPHIS      N/A     53 N/A N/A MISG        N/A
JACKSON        CLEAR     50  47  89 S3        30.09S
DYERSBURG      CLEAR     52  41  66 CALM      30.08S
UNION CITY     PTCLDY    52  50  93 CALM      30.06R
PARIS          CLOUDY    54  52  94 S5        30.07F
HUNTINGDON     CLOUDY    50  48  92 CALM      30.08S
LEXINGTON      CLEAR     46  46 100 CALM      30.08S
SAVANNAH       MOCLDY    45  45 100 CALM      30.10F
$$

TNZ008-025-027-028-033-062-065-066-251300-
NORTH MIDDLE TENNESSEE

CITY           SKY/WX    TMP DP  RH WIND       PRES   REMARKS
NASHVILLE      PTCLDY    45  43  93 S3        30.10R
CLARKSVILLE    MOCLDY    49  48  97 CALM      30.06F FOG
SMYRNA         CLEAR     42  42 100 CALM      30.11S
COOKEVILLE     CLEAR     37  37 100 CALM      30.10R
CROSSVILLE     CLEAR     41  38  89 CALM      30.10F FOG
$$

TNZ061-075-076-078-094-096-097-251300-
SOUTH MIDDLE TENNESSEE

CITY           SKY/WX    TMP DP  RH WIND       PRES   REMARKS
FAYETTEVILLE   CLEAR     43  41  93 E130      30.10S
TULLAHOMA      CLEAR     37  36  93 CALM      30.11S
WINCHESTER     CLEAR     37  37 100 CALM      30.11S
MCMINNVILLE    CLEAR     39  39 100 CALM      30.10S
SHELBYVILLE    CLEAR     43  43 100 E3        30.11S
$$

TNZ017-018-042-046-047-251300-
NORTHEAST TENNESSEE

CITY           SKY/WX    TMP DP  RH WIND       PRES   REMARKS
TRI CITIES     PTCLDY    33  33 100 CALM      30.11S FOG
ELIZABETHTON   SUNNY     34  34 100 CALM      30.11S
$$

TNZ012-013-036-069-073-074-251300-
CENTRAL EAST TENNESSEE

CITY           SKY/WX    TMP DP  RH WIND       PRES   REMARKS
KNOXVILLE      PTCLDY    41  39  93 CALM      30.10S
OAK RIDGE      FOG       41  40  96 CALM      30.12R VSB 1/2
GATLINBURG     SUNNY     36  36 100 CALM      30.10F
MORRISTOWN     SUNNY     39  37  93 CALM      30.10F
$$

TNZ083-085-099-251300-
SOUTHEAST TENNESSEE

CITY           SKY/WX    TMP DP  RH WIND       PRES   REMARKS
CHATTANOOGA    CLEAR     45  42  89 CALM      30.11R
$$

SKY/WX REPORTED AS FAIR MEANS FEW OR NO CLOUDS BELOW
12 THOUSAND FEET.




USA.gov is the U.S. government's official web portal to all federal, state and local government web resources and services.